When you browse on this site, cookies collect data to enhance your experience and personalize the content and advertising you see.
Visit our Privacy Policy to learn more. By continuing to use the site, you agree to this use of cookies and data.
  • In Hungary
  • List of Countries
  • For 7 days
  • Water Temperature
  • Satellite Maps
  • Weather Map
  • News
  • Weather Widgets
  • user-avatar
    Login

    Hourly Weather Chirala

    Today, 23 January, Wednesday

    Time Temperature Precipitation Wind Pressure Humidity
    00:00 +22°C° 0 mm 3 mps 761 mmHg 85%
    01:00 +21°C° 0 mm 3 mps 760 mmHg 87%
    02:00 +21°C° 0 mm 2 mps 760 mmHg 88%
    03:00 +21°C° 0 mm 2 mps 760 mmHg 89%
    04:00 +21°C° 0 mm 2 mps 760 mmHg 90%
    05:00 +20°C° 0 mm 2 mps 760 mmHg 92%
    06:00 +23°C° 0 mm 2 mps 760 mmHg 87%
    07:00 +24°C° 0 mm 2 mps 761 mmHg 83%
    08:00 +25°C° 0 mm 2 mps 761 mmHg 78%
    09:00 +27°C° 0 mm 2 mps 761 mmHg 70%
    10:00 +28°C° 0 mm 3 mps 761 mmHg 61%
    11:00 +30°C° 0 mm 3 mps 761 mmHg 53%
    12:00 +31°C° 0 mm 3 mps 760 mmHg 51%
    13:00 +32°C° 0 mm 4 mps 759 mmHg 50%
    14:00 +33°C° 0 mm 4 mps 759 mmHg 48%
    15:00 +30°C° 0 mm 4 mps 759 mmHg 53%
    16:00 +29°C° 0 mm 4 mps 759 mmHg 59%
    17:00 +28°C° 0 mm 5 mps 758 mmHg 65%
    18:00 +27°C° 0 mm 4 mps 759 mmHg 70%
    19:00 +26°C° 0 mm 4 mps 760 mmHg 76%
    20:00 +23°C° 0 mm 4 mps 760 mmHg 82%
    21:00 +23°C° 0 mm 4 mps 760 mmHg 84%
    22:00 +23°C° 0 mm 4 mps 761 mmHg 86%
    23:00 +23°C° 0 mm 4 mps 761 mmHg 87%

    Tomorrow, 24 January, Thursday

    Time Temperature Precipitation Wind Pressure Humidity
    00:00 +24°C° 0 mm 3 mps 760 mmHg 89%
    01:00 +22°C° 0 mm 3 mps 760 mmHg 90%
    02:00 +22°C° 0 mm 3 mps 760 mmHg 91%
    03:00 +23°C° 0 mm 2 mps 760 mmHg 91%
    04:00 +23°C° 0 mm 2 mps 760 mmHg 91%
    05:00 +23°C° 0 mm 2 mps 760 mmHg 92%
    06:00 +24°C° 0 mm 1 mps 760 mmHg 87%
    07:00 +25°C° 0 mm 1 mps 761 mmHg 82%
    08:00 +26°C° 0 mm 1 mps 761 mmHg 78%
    09:00 +27°C° 0 mm 2 mps 761 mmHg 69%
    10:00 +29°C° 0 mm 2 mps 761 mmHg 61%
    11:00 +31°C° 0 mm 3 mps 761 mmHg 52%
    12:00 +31°C° 0 mm 3 mps 761 mmHg 50%
    13:00 +32°C° 0 mm 4 mps 760 mmHg 49%
    14:00 +33°C° 0 mm 5 mps 759 mmHg 47%
    15:00 +30°C° 0 mm 5 mps 759 mmHg 53%
    16:00 +29°C° 0 mm 5 mps 759 mmHg 58%
    17:00 +28°C° 0 mm 4 mps 759 mmHg 63%
    18:00 +27°C° 0 mm 4 mps 759 mmHg 70%
    19:00 +26°C° 0 mm 4 mps 760 mmHg 77%
    20:00 +25°C° 0 mm 4 mps 761 mmHg 83%
    21:00 +23°C° 0 mm 4 mps 761 mmHg 85%
    22:00 +23°C° 0 mm 4 mps 761 mmHg 87%
    23:00 +23°C° 0 mm 4 mps 761 mmHg 89%

    Day after tomorrow, 25 January, Friday

    Time Temperature Precipitation Wind Pressure Humidity
    00:00 +22°C° 0 mm 3 mps 760 mmHg 90%
    01:00 +22°C° 0 mm 3 mps 760 mmHg 91%
    02:00 +22°C° 0 mm 3 mps 759 mmHg 91%
    03:00 +22°C° 0 mm 3 mps 759 mmHg 92%
    04:00 +22°C° 0 mm 3 mps 759 mmHg 92%
    05:00 +22°C° 0 mm 3 mps 759 mmHg 92%
    06:00 +24°C° 0 mm 3 mps 760 mmHg 86%
    07:00 +26°C° 0 mm 3 mps 760 mmHg 81%
    08:00 +27°C° 0 mm 3 mps 761 mmHg 75%
    09:00 +28°C° 0 mm 4 mps 761 mmHg 67%
    10:00 +30°C° 0 mm 4 mps 761 mmHg 59%
    11:00 +32°C° 0 mm 5 mps 761 mmHg 51%
    12:00 +32°C° 0 mm 5 mps 760 mmHg 51%
    13:00 +32°C° 0 mm 5 mps 759 mmHg 52%
    14:00 +32°C° 0 mm 5 mps 758 mmHg 52%
    15:00 +30°C° 0 mm 5 mps 758 mmHg 57%
    16:00 +29°C° 0 mm 5 mps 758 mmHg 63%
    17:00 +28°C° 0 mm 5 mps 758 mmHg 69%
    18:00 +27°C° 0 mm 4 mps 759 mmHg 75%
    19:00 +26°C° 0 mm 4 mps 760 mmHg 81%
    20:00 +25°C° 0 mm 4 mps 761 mmHg 87%
    21:00 +25°C° 0 mm 4 mps 761 mmHg 88%
    22:00 +25°C° 0 mm 4 mps 761 mmHg 89%
    23:00 +23°C° 0 mm 4 mps 761 mmHg 90%

    26 January, Saturday

    Time Temperature Precipitation Wind Pressure Humidity
    00:00 +23°C° 0 mm 4 mps 760 mmHg 91%
    01:00 +23°C° 0 mm 4 mps 760 mmHg 92%
    02:00 +23°C° 0 mm 4 mps 759 mmHg 93%
    03:00 +24°C° 0 mm 3 mps 759 mmHg 92%
    04:00 +24°C° 0 mm 3 mps 759 mmHg 92%
    05:00 +24°C° 0 mm 3 mps 759 mmHg 92%
    06:00 +25°C° 0 mm 3 mps 760 mmHg 87%
    07:00 +26°C° 0 mm 3 mps 760 mmHg 82%
    08:00 +27°C° 0 mm 3 mps 761 mmHg 77%
    09:00 +28°C° 0 mm 4 mps 761 mmHg 71%
    10:00 +29°C° 0 mm 4 mps 761 mmHg 65%
    11:00 +30°C° 0 mm 4 mps 761 mmHg 59%
    12:00 +30°C° 0 mm 4 mps 760 mmHg 59%
    13:00 +30°C° 0 mm 4 mps 760 mmHg 58%
    14:00 +30°C° 0 mm 4 mps 759 mmHg 57%
    15:00 +30°C° 0 mm 4 mps 759 mmHg 60%
    16:00 +29°C° 0 mm 4 mps 759 mmHg 64%
    17:00 +28°C° 0 mm 4 mps 759 mmHg 67%
    18:00 +27°C° 0 mm 4 mps 760 mmHg 73%
    19:00 +26°C° 0 mm 4 mps 761 mmHg 79%
    20:00 +25°C° 0 mm 3 mps 761 mmHg 85%
    21:00 +25°C° 0 mm 3 mps 761 mmHg 87%
    22:00 +24°C° 0 mm 3 mps 762 mmHg 88%
    23:00 +24°C° 0 mm 3 mps 762 mmHg 89%

    27 January, Sunday

    Time Temperature Precipitation Wind Pressure Humidity
    00:00 +24°C° 0 mm 3 mps 761 mmHg 90%
    01:00 +24°C° 0 mm 3 mps 761 mmHg 91%
    02:00 +22°C° 0 mm 3 mps 760 mmHg 91%
    03:00 +22°C° 0 mm 3 mps 760 mmHg 92%
    04:00 +22°C° 0 mm 3 mps 761 mmHg 93%
    05:00 +21°C° 0 mm 2 mps 761 mmHg 93%
    06:00 +22°C° 0 mm 3 mps 762 mmHg 89%
    07:00 +24°C° 0 mm 3 mps 762 mmHg 84%
    08:00 +25°C° 0 mm 3 mps 763 mmHg 79%
    09:00 +27°C° 0 mm 3 mps 763 mmHg 71%
    10:00 +29°C° 0 mm 3 mps 763 mmHg 62%
    11:00 +30°C° 0 mm 3 mps 763 mmHg 53%
    12:00 +32°C° 0 mm 4 mps 762 mmHg 50%
    13:00 +33°C° 0 mm 4 mps 761 mmHg 47%
    14:00 +33°C° 0 mm 4 mps 760 mmHg 44%
    15:00 +32°C° 0 mm 4 mps 760 mmHg 49%
    16:00 +30°C° 0 mm 5 mps 760 mmHg 54%
    17:00 +28°C° 0 mm 5 mps 760 mmHg 59%
    18:00 +27°C° 0 mm 5 mps 760 mmHg 65%
    19:00 +26°C° 0 mm 5 mps 761 mmHg 71%
    20:00 +25°C° 0 mm 4 mps 762 mmHg 78%
    21:00 +23°C° 0 mm 4 mps 762 mmHg 80%
    22:00 +24°C° 0 mm 3 mps 762 mmHg 82%
    23:00 +24°C° 0 mm 3 mps 762 mmHg 85%

    28 January, Monday

    Time Temperature Precipitation Wind Pressure Humidity
    00:00 +24°C° 0 mm 3 mps 762 mmHg 86%
    01:00 +22°C° 0 mm 3 mps 761 mmHg 87%
    02:00 +22°C° 0 mm 3 mps 761 mmHg 87%
    03:00 +22°C° 0 mm 3 mps 761 mmHg 86%
    04:00 +22°C° 0 mm 3 mps 761 mmHg 84%
    05:00 +22°C° 0 mm 3 mps 761 mmHg 82%
    06:00 +24°C° 0 mm 3 mps 762 mmHg 80%
    07:00 +25°C° 0 mm 3 mps 763 mmHg 77%
    08:00 +26°C° 0 mm 3 mps 763 mmHg 74%
    09:00 +27°C° 0 mm 3 mps 763 mmHg 65%
    10:00 +29°C° 0 mm 3 mps 763 mmHg 56%
    11:00 +31°C° 0 mm 3 mps 763 mmHg 47%
    12:00 +31°C° 0 mm 3 mps 762 mmHg 46%
    13:00 +31°C° 0 mm 3 mps 761 mmHg 45%
    14:00 +31°C° 0 mm 3 mps 761 mmHg 44%
    15:00 +30°C° 0.6 mm 3 mps 760 mmHg 50%
    16:00 +29°C° 0.6 mm 3 mps 760 mmHg 56%
    17:00 +28°C° 0.6 mm 3 mps 760 mmHg 62%
    18:00 +27°C° 0.2 mm 3 mps 761 mmHg 68%
    19:00 +26°C° 0.2 mm 3 mps 761 mmHg 73%
    20:00 +25°C° 0.2 mm 3 mps 762 mmHg 79%
    21:00 +25°C° 0 mm 2 mps 762 mmHg 81%
    22:00 +24°C° 0 mm 2 mps 762 mmHg 84%
    23:00 +24°C° 0 mm 1 mps 762 mmHg 86%
    Show more